Starlink 2041

operational
NORAD ID: 47657 Int'l Des: 2021-012 Owner: SPXS Country: US Constellation: starlink
LEOCIRCULAR

Starlink 2041について

説明を読み込み中...

リアルタイム位置

3D地球を読み込み中...

次回通過

高度履歴

Altitude vs Time

uPlot chart will show altitude changes over time

軌道要素

1 47657U 21012AP 26063.00001157 .01729573 00000-0 48406-1 0 9993
2 47657 53.1596 91.3470 0001548 77.2691 262.8266 15.32906710 5915
Epoch: Mar 4, 2026 • Age: 10 hours

現在のステータス

高度 468.9 km
速度 7.64 km/s
衛星直下点 53.31°N, 130.88°W
打ち上げ日 Feb 16, 2021
運用期間 5 years
タイプ internet

技術仕様

分類 Payload
質量 260.00 kg
乾燥質量 248.00 kg
総質量 260.00 kg
長さ 0.20 m
直径 2.80 m
スパン 9.00 m
形状 Box + pan
製造者 SPXS
バスタイプ Starlink
フェーズステータス In Orbit
所有者/国 SPXS/US

大規模コンステレーション

Loading constellations...